Regional Weather Roundup
Issued by NWS

Home | Current Version | Previous Version | Graphics & Text | Print | Product List | Glossary On
Versions: 1 2 3 4 5 6 7 8 9 10 11 12 13 14 15 16 17 18 19 20 21 22 23 24 25 26 27
000
ASUS45 KSLC 290510
RWRUT

UTAH REGIONAL WEATHER ROUNDUP
NATIONAL WEATHER SERVICE SALT LAKE CITY UT
1100 PM MDT SUN MAY 28 2017

UTZ001>011-023>025-290600-

NORTHERN UTAH

CITY           SKY/WX    TMP DP  RH WIND       PRES   REMARKS
BRIGHAM CITY   CLEAR     63  40  43 CALM      30.16S
HILL AFB       CLEAR     61  35  38 E7        30.18R
LOGAN          CLEAR     59  40  49 CALM      30.18R
OGDEN          CLEAR     58  36  43 S7        30.16R
SALT LAKE CITY CLEAR     67  43  41 CALM      30.15R
TOOELE VALLEY  CLEAR     50  41  71 S6        30.17R
WENDOVER       CLEAR     64  31  28 W3        30.17R
WEST JORDAN    CLEAR     59  43  53 W3        30.18R

$$

UTZ011>015-024>027-290600-

CENTRAL/NORTHEAST UTAH

CITY           SKY/WX    TMP DP  RH WIND       PRES   REMARKS
PROVO AIRPORT  CLEAR     63  46  54 N7        30.16S
MOAB/CANYONLAN CLEAR     61  11  14 CALM      30.10S
DELTA          CLEAR     61  30  31 N9        30.16S
PRICE          CLEAR     56  29  35 N6        30.20S
ROOSEVELT      CLOUDY    61  32  33 NW7       30.21R
VERNAL         PTCLDY    59  35  40 W3        30.19R

$$

UTZ013>016-019>022-027-290600-

SOUTHERN UTAH

CITY           SKY/WX    TMP DP  RH WIND       PRES   REMARKS
BRYCE CANYON   PTCLDY    48  24  39 W7        30.30R
CEDAR CITY     CLEAR     53  22  29 CALM      30.18R
MILFORD        CLEAR     53  18  25 NW8       30.15R
ST GEORGE      CLEAR     80  23  12 NE10      29.97R
HANKSVILLE     CLEAR     66  14  13 CALM      30.13R
BLANDING       CLEAR     57  16  19 N3        30.26R

$$

REGIONAL REPORTS     COLORADO/ARIZONA

CITY           SKY/WX    TMP DP  RH WIND       PRES   REMARKS
CRAIG, CO      CLEAR     44  36  73 N3        30.27R
GRAND JUNCTION CLEAR     65  24  21 NE9       30.13S
RIFLE, CO      CLEAR     62  27  26 W6        30.21R
MONTROSE, CO   CLEAR     54  24  31 SE8       30.22R
CORTEZ, CO     CLEAR     47  31  53 E9        30.20R
COLORADO CITY    N/A     59  28  31 CALM      30.13S
PAGE, AZ       CLEAR     71  18  13 VRB3      30.07R
GRAND CANYON   CLEAR     45  25  45 CALM      30.23R
KINGMAN, AZ    CLEAR     68  17  14 MISG      30.00R
FLAGSTAFF, AZ  PTCLDY    53  20  27 CALM      30.23R

$$

REGIONAL REPORTS    NEVADA/IDAHO/WYOMING

CITY           SKY/WX    TMP DP  RH WIND       PRES   REMARKS
LAS VEGAS, NV  CLEAR     85  16   7 W8        29.90R
ELY, NY        CLEAR     49  22  34 E5        30.24R
ELKO, NV       CLEAR     60  32  34 CALM      30.17R
POCATELLO, ID  CLEAR     55  39  54 E6        30.19R
BURLEY, ID     CLEAR     58  49  72 CALM      30.15S
FORT BRIDGER,    N/A     55  27  34 W6        30.33R
EVANSTON, WY   CLEAR     53  29  39 N7        30.31R
ROCK SPRINGS,  CLEAR     50  37  61 NE18      30.31R
KEMMERER, WY     N/A     48  32  53 N5        30.32R

$$




USA.gov is the U.S. government's official web portal to all federal, state and local government web resources and services.